Regional Weather Roundup
Issued by NWS

Home | Current Version | Previous Version | Graphics & Text | Print | Product List | Glossary On
Versions: 1 2 3 4 5 6 7 8 9 10 11 12 13 14 15 16 17 18 19 20 21 22 23 24 25 26 27 28 29 30 31 32 33 34 35 36 37 38 39 40 41 42 43 44 45 46 47 48 49 50
000
ASUS43 KOAX 300310
RWRNE

WEATHER ROUNDUP FOR NEBRASKA
NATIONAL WEATHER SERVICE OMAHA NE
1000 PM CDT SUN MAY 29 2016

NOTES: SATELLITE DATA IS BEING USED TO AUGMENT CLOUD COVER ABOVE
       12000 FEET.
       "FAIR" INDICATES FEW OR NO CLOUDS BELOW 12,000 FEET WITH NO
       SIGNIFICANT WEATHER AND/OR OBSTRUCTIONS TO VISIBILITY.

  * THESE STATIONS DO NOT REPORT WEATHER SUCH AS RAIN...SNOW OR FOG.

NEZ001>004-019>022-054>056-300400-
NEBRASKA PANHANDLE

CITY           SKY/WX    TMP DP  RH WIND       PRES   REMARKS
SCOTTSBLUFF    PTCLDY    62  45  53 N3        30.02R
ALLIANCE       CLOUDY    63  52  67 CALM      30.00R
CHADRON        CLOUDY    62  52  69 W7        29.98R
KIMBALL        CLOUDY    57  47  68 CALM      30.07S
SIDNEY         CLOUDY    62  47  57 NE9       30.02F
$$

NEZ057>060-069>072-079>082-300400-
SOUTHWEST NEBRASKA

CITY           SKY/WX    TMP DP  RH WIND       PRES   REMARKS
NORTH PLATTE   CLOUDY    64  51  62 S17       30.06R
IMPERIAL       CLOUDY    62  52  69 S21G39    30.03R
LEXINGTON      CLOUDY    68  52  55 NW9       30.04R
MCCOOK         CLOUDY    66  51  58 SW10G17   30.03S
OGALLALA       CLOUDY    65  51  60 E8        30.05R
$$

NEZ005>010-023>029-035>040-094-300400-
NORTH CENTRAL NEBRASKA

CITY           SKY/WX    TMP DP  RH WIND       PRES   REMARKS
VALENTINE      PTCLDY    68  56  65 E10       29.99R
AINSWORTH      CLOUDY    69  58  69 E9        30.00R
BROKEN BOW     CLOUDY    66  56  70 SW9       30.04R
O`NEILL        CLOUDY    69  57  66 E8        30.02R
ORD            CLOUDY    72  56  57 S9        29.99R THUNDER
THEDFORD       CLOUDY    69  56  62 S15       30.03R
$$

NEZ041-046>049-061>064-073>077-083>087-300400-
SOUTH CENTRAL NEBRASKA

CITY           SKY/WX    TMP DP  RH WIND       PRES   REMARKS
GRAND ISLAND   CLOUDY    69  58  67 S14       30.03R
AURORA         CLOUDY    68  53  59 SW12      30.03R THUNDER
HASTINGS       CLOUDY    68  51  54 SE20G29   30.04R THUNDER
HEBRON         CLOUDY    72  55  55 N8        30.07R THUNDER
HOLDREGE       CLOUDY    69  49  49 S9        30.05R
KEARNEY *      CLOUDY    72  59  64 S14       30.04R
YORK           CLOUDY    66  54  63 SW10      30.02R
$$

NEZ011>018-030>034-042>045-300400-
NORTHEAST NEBRASKA

CITY           SKY/WX    TMP DP  RH WIND       PRES   REMARKS
NORFOLK        CLOUDY    69  57  65 SE5       30.00R
ALBION         CLOUDY    70  57  63 S8        30.02R
BLAIR          CLOUDY    73  60  62 E3        30.00S
FREMONT        CLOUDY    74  59  59 E3        30.00R
TEKAMAH          N/A    N/A N/A N/A MISG      30.00R
WAYNE          CLOUDY    69  58  68 E9        30.02R
$$

NEZ050>053-065>068-078-088>093-300400-
SOUTHEAST NEBRASKA

CITY           SKY/WX    TMP DP  RH WIND       PRES   REMARKS
LINCOLN        CLOUDY    74  61  63 S6        30.00S
OMAHA EPPLEY   CLOUDY    75  59  57 CALM      29.99R
BEATRICE       CLOUDY    70  59  68 S8        30.03S THUNDER
FALLS CITY     CLOUDY    71  64  78 SE5       30.02R
NEBRASKA CITY  CLOUDY    73  60  64 S6        30.02R
PLATTSMOUTH    CLOUDY    78  60  52 S9        30.01R
$$

NEZ044-045-051>053-067-300400-
OMAHA AREA

CITY           SKY/WX    TMP DP  RH WIND       PRES   REMARKS
OMAHA EPPLEY   CLOUDY    75  59  57 CALM      29.99R
BLAIR          CLOUDY    73  60  62 E3        30.00S
FREMONT        CLOUDY    74  59  59 E3        30.00R
MILLARD        CLOUDY    72  61  68 CALM      30.00R
OFFUTT AFB     CLOUDY    70  67  89 N1        29.99R
PLATTSMOUTH    CLOUDY    78  60  52 S9        30.01R
WAHOO          MOCLDY    73  64  72 S8        30.00R
$$




USA.gov is the U.S. government's official web portal to all federal, state and local government web resources and services.